Location: Las Callecitas
(9.8750°N, 67.4611°W)
Time: 03:29:42
(UTC+00:00)

Cosmos 1461 - Pass Details

Date: 14 April 2024
Orbit: 499 x 586 km, 65.0° (Epoch: 19 May)

Event Time Altitude Azimuth Distance (km) Brightness Sun altitude
Rises 09:04:21 0° 340° (NNW) 2,574 6.2 -19.0°
Reaches altitude 10° 09:06:30 10° 341° (NNW) 1,695 5.3 -18.5°
Maximum altitude 09:10:16 77° 68° (ENE) 517 2.7 -17.6°
Drops below altitude 10° 09:14:05 10° 154° (SSE) 1,721 5.5 -16.7°
Sets 09:16:17 0° 156° (SSE) 2,619 6.4 -16.2°
